DW6885 Weather Reports


Display with metric or nautical units.
time (UTC)temp
F
wind
direction
speed
MPH
gust
MPH
rain 1hr
in
rain 24hr
in
rain mn
in
humidity
%
barometer
mb
20170423115114 41 169 1.0 6.0 0.00 0.00 0.00 88 1018.1
20170423114113 40 295 1.0 5.0 0.00 0.00 0.00 91 1017.9
20170423113113 40 78 2.0 7.0 0.00 0.00 0.00 89 1017.7
20170423112614 40 21 1.0 7.0 0.00 0.00 0.00 89 1017.6
20170423111114 39 314 1.0 3.0 0.00 0.00 0.00 91 1017.5
20170423110114 38 345 0.0 6.0 0.00 0.00 0.00 92 1017.3
20170423104614 38 301 1.0 3.0 0.00 0.00 0.00 93 1016.9
20170423104113 38 271 1.0 3.0 0.00 0.00 0.00 93 1017.0
20170423103614 38 302 0.0 3.0 0.00 0.00 0.00 93 1016.9
20170423103113 37 322 0.0 3.0 0.00 0.00 0.00 94 1016.7
20170423102614 37 315 0.0 3.0 0.00 0.00 0.00 94 1016.7
20170423101614 37 351 2.0 7.0 0.00 0.00 0.00 94 1016.4
20170423100614 37 291 2.0 5.0 0.00 0.00 0.00 95 1016.4
20170423100114 37 313 1.0 3.0 0.00 0.00 0.00 95 1016.2
20170423095113 36 286 0.0 3.0 0.00 0.00 0.00 94 1016.3
20170423094614 37 286 0.0 3.0 0.00 0.00 0.00 94 1016.2
20170423094114 37 87 0.0 5.0 0.00 0.00 0.00 94 1016.0
20170423093614 37 330 1.0 5.0 0.00 0.00 0.00 95 1016.1
20170423093113 37 306 1.0 3.0 0.00 0.00 0.00 94 1016.0
20170423092614 37 305 0.0 5.0 0.00 0.00 0.00 94 1016.0
20170423091614 37 296 0.0 3.0 0.00 0.00 0.00 94 1015.8
20170423091113 37 302 0.0 2.0 0.00 0.00 0.00 94 1015.9
20170423090614 37 302 0.0 5.0 0.00 0.00 0.00 94 1015.9
20170423090113 37 302 0.0 5.0 0.00 0.00 0.00 94 1015.8
20170423085613 37 319 1.0 5.0 0.00 0.00 0.00 95 1015.7
20170423084113 37 357 0.0 8.0 0.00 0.00 0.00 95 1015.7
20170423083613 37 4 1.0 8.0 0.00 0.00 0.00 94 1015.8
20170423083113 37 0 0.0 0.0 0.00 0.00 0.00 94 1015.9
20170423082114 38 0 0.0 3.0 0.00 0.00 0.00 94 1015.9
20170423081614 38 2 1.0 3.0 0.00 0.00 0.00 94 1015.9
20170423080614 38 0 0.0 3.0 0.00 0.00 0.00 93 1015.9
20170423080114 38 22 0.0 6.0 0.00 0.00 0.00 94 1015.9
20170423074614 37 313 1.0 6.0 0.00 0.00 0.00 95 1015.8
20170423073614 37 22 0.0 5.0 0.00 0.00 0.00 94 1015.7
20170423073114 37 4 2.0 5.0 0.00 0.00 0.00 95 1015.6
20170423072114 37 303 0.0 3.0 0.00 0.00 0.00 95 1015.9
20170423071614 37 29 0.0 3.0 0.00 0.00 0.00 94 1015.9
20170423070614 38 29 0.0 3.0 0.00 0.00 0.00 94 1015.9
20170423065113 38 299 1.0 3.0 0.00 0.00 0.00 94 1015.7
20170423064614 38 323 1.0 3.0 0.00 0.00 0.00 94 1015.7
20170423063614 39 309 0.0 8.0 0.00 0.00 0.00 93 1015.6
20170423063114 39 15 1.0 8.0 0.00 0.00 0.00 94 1015.6
20170423062113 38 331 0.0 3.0 0.00 0.00 0.00 94 1015.6
20170423061614 38 342 1.0 8.0 0.00 0.00 0.00 94 1015.6
20170423061113 38 313 2.0 8.0 0.00 0.00 0.00 94 1015.6
20170423055113 39 302 1.0 6.0 0.00 0.01 0.00 94 1015.7
20170423054614 39 285 1.0 6.0 0.00 0.01 0.00 94 1015.8
20170423054114 39 322 0.0 2.0 0.00 0.01 0.00 94 1015.8
20170423053614 39 322 0.0 2.0 0.00 0.01 0.00 94 1015.8
20170423053114 39 322 1.0 3.0 0.00 0.01 0.00 94 1015.8
20170423051614 39 340 0.0 3.0 0.00 0.01 0.00 95 1015.6
20170423050114 39 311 0.0 1.0 0.00 0.01 0.00 94 1015.5
20170423045613 40 311 0.0 7.0 0.00 0.01 0.00 94 1015.5
20170423045113 40 311 0.0 7.0 0.00 0.01 0.00 94 1015.6
20170423044614 40 34 1.0 3.0 0.00 0.01 0.00 94 1015.4
20170423044113 40 252 1.0 3.0 0.00 0.01 0.00 94 1015.2
20170423043614 40 252 0.0 3.0 0.00 0.01 0.00 94 1015.2
20170423043113 40 86 1.0 3.0 0.00 0.01 0.00 94 1015.3
20170423042614 40 306 1.0 7.0 0.00 0.01 0.00 94 1015.2
20170423042113 40 30 2.0 7.0 0.00 0.01 0.00 95 1015.0
20170423041614 41 289 0.0 3.0 0.00 0.01 0.00 95 1014.8
20170423041113 41 302 0.0 7.0 0.00 0.01 0.00 96 1014.8
20170423040113 41 337 2.0 8.0 0.00 0.01 0.00 96 1014.8
20170423034614 41 317 2.0 7.0 0.00 0.01 0.01 98 1014.8
20170423032114 40 337 0.0 2.0 0.00 0.01 0.01 97 1014.9
20170423031614 40 338 0.0 1.0 0.00 0.01 0.01 97 1014.7
20170423031113 40 338 0.0 1.0 0.00 0.01 0.01 97 1014.7
20170423030615 41 338 0.0 2.0 0.00 0.01 0.01 97 1014.7
20170423030113 41 338 1.0 3.0 0.00 0.01 0.01 97 1014.7
20170423025613 41 338 1.0 3.0 0.00 0.01 0.01 97 1014.7
20170423025113 41 321 0.0 2.0 0.00 0.01 0.01 97 1014.7
20170423024614 41 321 0.0 2.0 0.00 0.01 0.01 97 1014.7
20170423024113 41 319 0.0 3.0 0.00 0.02 0.01 97 1014.6
20170423022614 41 135 0.0 0.0 0.00 0.02 0.01 97 1014.7
20170423020614 42 135 0.0 0.0 0.00 0.02 0.01 97 1014.6
20170423020113 42 135 0.0 0.0 0.00 0.02 0.01 97 1014.7
20170423015613 42 135 0.0 0.0 0.00 0.02 0.01 97 1014.6
20170423015113 43 135 0.0 0.0 0.00 0.02 0.01 97 1014.6
20170423014614 43 135 0.0 0.0 0.00 0.02 0.01 97 1014.6
20170423013114 43 135 0.0 0.0 0.00 0.02 0.01 97 1014.6
20170423012614 43 135 0.0 0.0 0.00 0.02 0.01 97 1014.7
20170423011614 43 135 0.0 0.0 0.00 0.02 0.01 97 1014.4
20170423011113 43 135 0.0 0.0 0.00 0.02 0.01 97 1014.5
20170423010113 44 135 0.0 0.0 0.00 0.02 0.01 97 1014.3
20170423005613 44 135 0.0 0.0 0.00 0.02 0.01 97 1014.3
20170423005114 44 135 0.0 0.0 0.00 0.02 0.01 97 1014.3
20170423004614 44 135 0.0 0.0 0.00 0.02 0.01 97 1014.3
20170423004113 44 135 0.0 0.0 0.00 0.03 0.01 97 1014.4
20170423003614 44 135 0.0 0.0 0.00 0.03 0.01 97 1014.3
20170423002113 44 135 0.0 0.0 0.00 0.03 0.01 97 1014.2
20170423001114 44 193 0.0 1.0 0.00 0.03 0.01 97 1014.1
20170422235113 44 193 0.0 0.0 0.00 0.03 0.01 96 1013.9
20170422234613 44 193 0.0 0.0 0.00 0.03 0.01 96 1014.0
20170422234113 44 193 0.0 0.0 0.00 0.03 0.01 96 1013.8
20170422233614 45 193 0.0 0.0 0.00 0.03 0.01 96 1013.6
20170422233113 45 193 0.0 0.0 0.00 0.03 0.01 96 1013.6
20170422232613 45 193 0.0 0.0 0.00 0.03 0.01 96 1013.6
20170422231613 45 193 0.0 0.0 0.00 0.03 0.01 96 1013.7
20170422231113 45 193 0.0 0.0 0.00 0.03 0.01 95 1013.6
20170422230114 45 193 0.0 0.0 0.00 0.04 0.01 95 1013.7
20170422225614 45 193 0.0 0.0 0.00 0.04 0.01 95 1013.5
20170422225113 46 193 0.0 0.0 0.00 0.04 0.01 95 1013.4
20170422224613 46 193 0.0 0.0 0.00 0.04 0.01 95 1013.6
20170422224112 46 193 0.0 0.0 0.00 0.04 0.01 95 1013.6
20170422223614 46 193 0.0 0.0 0.00 0.04 0.01 95 1013.5
20170422223113 46 193 0.0 0.0 0.00 0.04 0.01 94 1013.5
20170422222614 46 193 0.0 0.0 0.00 0.04 0.01 94 1013.6
20170422222113 46 193 0.0 0.0 0.00 0.04 0.01 94 1013.7
20170422221613 46 193 0.0 0.0 0.00 0.04 0.01 93 1013.7
20170422220614 46 193 0.0 0.0 0.00 0.04 0.01 93 1013.6
20170422220114 46 193 0.0 0.0 0.00 0.04 0.01 93 1013.5
20170422215113 46 193 0.0 0.0 0.00 0.04 0.01 92 1013.3
20170422214614 46 193 0.0 3.0 0.00 0.04 0.01 92 1013.3
20170422214113 46 193 0.0 3.0 0.00 0.04 0.01 92 1013.3
20170422213614 47 304 0.0 0.0 0.00 0.04 0.01 93 1013.2
20170422212613 47 304 0.0 1.0 0.00 0.04 0.01 92 1013.1
20170422211113 47 304 0.0 1.0 0.00 0.04 0.01 91 1013.0
20170422205113 47 304 0.0 2.0 0.00 0.04 0.01 90 1013.0
20170422204613 47 304 0.0 2.0 0.00 0.04 0.01 91 1012.9
20170422204112 47 304 1.0 2.0 0.00 0.04 0.01 90 1012.8
20170422203614 47 304 0.0 1.0 0.00 0.04 0.01 91 1012.9
20170422203113 46 304 0.0 2.0 0.00 0.04 0.01 92 1013.0
20170422202113 46 17 0.0 3.0 0.00 0.04 0.01 92 1012.7
20170422201614 46 17 1.0 3.0 0.00 0.04 0.01 91 1012.7
20170422200614 46 31 0.0 3.0 0.00 0.04 0.01 92 1012.6
20170422200113 46 31 0.0 3.0 0.00 0.04 0.01 92 1012.8
20170422195613 45 31 1.0 3.0 0.00 0.04 0.01 92 1013.0
20170422194613 45 216 0.0 5.0 0.00 0.04 0.01 94 1012.8
20170422194112 45 234 0.0 2.0 0.00 0.04 0.01 95 1012.6
20170422193613 44 303 1.0 2.0 0.00 0.04 0.01 96 1012.6
20170422193113 44 303 1.0 2.0 0.00 0.04 0.01 95 1012.7
20170422192613 44 303 0.0 2.0 0.00 0.04 0.01 95 1012.7
20170422192113 44 303 0.0 2.0 0.00 0.04 0.01 95 1012.8
20170422191614 44 303 0.0 2.0 0.00 0.04 0.01 95 1012.8
20170422190614 44 303 0.0 2.0 0.00 0.04 0.01 94 1012.9
20170422185113 44 303 0.0 3.0 0.00 0.04 0.01 94 1012.9
20170422184613 44 303 1.0 3.0 0.00 0.04 0.01 94 1013.1
20170422184112 44 319 0.0 2.0 0.00 0.04 0.01 94 1013.1
20170422183613 44 319 0.0 2.0 0.00 0.04 0.01 94 1013.1
20170422183113 44 319 0.0 3.0 0.00 0.04 0.01 94 1013.2
20170422182113 44 319 0.0 2.0 0.00 0.04 0.01 94 1013.2
20170422181614 44 319 0.0 3.0 0.00 0.04 0.01 94 1013.2
20170422180614 44 313 1.0 3.0 0.00 0.04 0.01 94 1012.9
20170422180113 44 315 0.0 1.0 0.00 0.04 0.01 95 1013.2
20170422175613 44 315 0.0 3.0 0.00 0.04 0.01 96 1013.1
20170422175113 44 315 1.0 3.0 0.00 0.04 0.01 95 1013.1
20170422174613 44 333 0.0 2.0 0.00 0.04 0.01 96 1013.2
20170422173613 43 333 1.0 3.0 0.00 0.04 0.01 96 1013.2
20170422173113 43 332 1.0 2.0 0.00 0.04 0.01 96 1013.3
20170422172113 43 332 0.0 2.0 0.00 0.04 0.01 97 1013.4
20170422170613 42 333 0.0 1.0 0.00 0.04 0.01 97 1013.6
20170422165613 42 333 0.0 1.0 0.00 0.04 0.01 96 1013.5
20170422165113 42 333 0.0 3.0 0.00 0.04 0.01 96 1013.5
20170422164613 42 333 0.0 3.0 0.00 0.04 0.01 96 1013.7
20170422163113 42 333 0.0 2.0 0.00 0.04 0.01 97 1013.5
20170422162613 42 333 0.0 0.0 0.00 0.04 0.01 97 1013.7
20170422162113 42 333 0.0 1.0 0.00 0.04 0.01 97 1013.7
20170422160614 41 333 0.0 2.0 0.00 0.04 0.01 97 1014.0
20170422160116 41 289 0.0 3.0 0.00 0.04 0.01 97 1014.1
20170422154614 41 260 0.0 3.0 0.00 0.04 0.01 98 1014.1
20170422153613 41 290 0.0 0.0 0.00 0.04 0.01 98 1013.8
20170422153116 41 290 0.0 2.0 0.00 0.04 0.01 98 1013.8
20170422152614 41 290 0.0 2.0 0.00 0.04 0.01 98 1013.9
20170422150614 41 329 0.0 3.0 0.00 0.04 0.01 99 1014.0
20170422145613 40 93 1.0 2.0 0.00 0.04 0.01 99 1013.5
20170422145113 40 296 0.0 2.0 0.00 0.04 0.01 99 1013.7
20170422144613 40 297 0.0 2.0 0.00 0.04 0.01 99 1013.9
20170422142613 40 297 0.0 2.0 0.00 0.04 0.01 99 1014.3
20170422142112 39 297 0.0 3.0 0.00 0.04 0.01 99 1014.4
20170422141616 39 297 1.0 3.0 0.00 0.05 0.01 99 1014.5
20170422140613 40 317 0.0 2.0 0.00 0.05 0.01 99 1014.4
20170422135113 40 326 0.0 1.0 0.00 0.05 0.01 99 1014.3
20170422134616 40 326 0.0 1.0 0.00 0.05 0.01 99 1014.5
20170422134112 40 326 0.0 1.0 0.00 0.05 0.01 99 1014.3
20170422133613 39 326 0.0 3.0 0.00 0.05 0.01 99 1014.2
20170422133115 39 321 0.0 3.0 0.00 0.05 0.01 99 1014.0
20170422132614 39 138 1.0 2.0 0.00 0.05 0.01 99 1013.9
20170422130614 39 125 1.0 3.0 0.00 0.05 0.01 99 1014.5
20170422130112 39 316 1.0 3.0 0.00 0.05 0.01 99 1014.6
20170422125113 39 46 0.0 2.0 0.00 0.05 0.01 99 1014.2
20170422124616 39 127 0.0 2.0 0.00 0.05 0.01 99 1014.2
20170422123614 39 84 0.0 1.0 0.00 0.05 0.01 99 1014.5
20170422123116 39 84 0.0 1.0 0.00 0.06 0.01 99 1014.5
20170422122613 39 84 0.0 3.0 0.00 0.06 0.01 99 1014.6
20170422122113 39 101 0.0 3.0 0.00 0.06 0.01 99 1014.5
20170422121616 39 156 0.0 3.0 0.00 0.06 0.01 99 1014.7
20170422121113 39 178 0.0 3.0 0.00 0.06 0.01 99 1014.4
20170422120613 39 264 0.0 3.0 0.00 0.06 0.01 99 1014.4
20170422120113 39 71 1.0 3.0 0.00 0.06 0.01 99 1014.3